Hourly Data Report for May 19, 2021

WIARTON A
ONTARIO
Current Station Operator: NAVCAN

44°44'39.000" N
81°06'31.000" W
221.90 m
6119499
71633
YVV

Download Data

Hourly Data (May 2021)
Hourly Data Report for May 19, 2021
TIME
LST
Temp Definition
°C
Dew Point Definition
°C
Rel Hum Definition
%
Precip. Amount Definition
mm

Wind Dir Definition
10's deg

Wind Spd Definition
km/h
Visibility Definition
km
Stn Press Definition
kPa
Hmdx Definition


Wind Chill Definition


Weather Definition


00:00 11.0 8.5 85   12 11 24.1 99.90     LegendNANA
01:00 10.5 8.3 86   14 14 24.1 99.91     Clear
02:00 11.7 8.9 83   14 6 24.1 99.87     LegendNANA
03:00 10.6 8.7 88   14 11 24.1 99.87     LegendNANA
04:00 11.0 8.6 85   15 9 24.1 99.90     Mainly Clear
05:00 10.1 8.7 91   12 10 24.1 99.93     LegendNANA
06:00 13.1 10.1 82   16 7 24.1 99.99     LegendNANA
07:00 16.2 9.8 65   16 9 24.1 100.04     Cloudy
08:00 18.5 9.9 57   20 8 24.1 100.08     LegendNANA
09:00 20.9 8.4 44   21 13 24.1 100.10     LegendNANA
10:00 21.7 10.7 49   22 5 24.1 100.10     Mostly Cloudy
11:00 24.1 10.1 41   20 14 24.1 100.09 25   LegendNANA
12:00 24.3 9.1 38   20 12 24.1 100.04 25   LegendNANA
13:00 24.0 10.3 41   26 4 24.1 99.98 25   Cloudy
14:00 23.9 10.6 42   34 8 24.1 99.95 25   LegendNANA
15:00 23.0 11.8 49   1 7 24.1 99.94 25   LegendNANA
16:00 23.5 10.2 43   3 7 24.1 99.92 25   Mostly Cloudy
17:00 24.2 11.2 44   32 4 24.1 99.90 26   LegendNANA
18:00 21.7 12.2 54   14 3 24.1 99.88     LegendNANA
19:00 18.4 11.4 63   36 1 24.1 99.84     Cloudy
20:00 16.6 11.4 71   5 6 24.1 99.83     LegendNANA
21:00 16.0 11.9 76   5 5 24.1 99.85     LegendNANA
22:00 17.1 10.8 67   9 3 24.1 99.85     Cloudy
23:00 18.4 11.3 63   14 12 24.1 99.84     LegendNANA

Notes on Data Quality.

Legend

  • E = Estimated
  • M = Missing
  • NA = Not Available*
  • [empty] = Indicates an unobserved value
Date modified: